This is the latest recevied weather packets stored in our database for station/object DC4THF-13. If no packets are shown the sender has not sent any weather packets the latest 10 day(s).
| Time | Temp. | Humidity | Pressure | Rain* | Wind** | Luminosity | Snow |
|---|---|---|---|---|---|---|---|
| 1777678961 | 7.22° C | 78% | 1019.8 hPa | 0 mm | - | - | - |
| 1777678357 | 7.22° C | 77% | 1019.8 hPa | 0 mm | - | - | - |
| 1777677754 | 7.22° C | 76% | 1020 hPa | 0 mm | - | - | - |
| 1777677151 | 7.78° C | 71% | 1020 hPa | 0 mm | - | - | - |
| 1777676548 | 7.78° C | 71% | 1020 hPa | 0 mm | - | - | - |
| 1777675945 | 7.78° C | 70% | 1019.9 hPa | 0 mm | - | - | - |
| 1777675341 | 8.33° C | 71% | 1020.1 hPa | 0 mm | - | - | - |
| 1777674737 | 8.33° C | 71% | 1019.9 hPa | 0 mm | - | - | - |
| 1777674194 | 8.33° C | 70% | 1020.1 hPa | 0 mm | - | - | - |
| 1777673589 | 8.33° C | 69% | 1020 hPa | 0 mm | - | - | - |
| 1777672986 | 8.89° C | 69% | 1020 hPa | 0 mm | - | - | - |
| 1777672381 | 9.44° C | 68% | 1020.1 hPa | 0 mm | - | - | - |
| 1777671778 | 9.44° C | 68% | 1020 hPa | 0 mm | - | - | - |
| 1777671174 | 9.44° C | 67% | 1020 hPa | 0 mm | - | - | - |
| 1777670571 | 10° C | 65% | 1019.9 hPa | 0 mm | - | - | - |
| 1777669968 | 10° C | 64% | 1020 hPa | 0 mm | - | - | - |
| 1777669365 | 10.56° C | 65% | 1020 hPa | 0 mm | - | - | - |
| 1777668762 | 10° C | 64% | 1020 hPa | 0 mm | - | - | - |
| 1777668158 | 10.56° C | 63% | 1019.9 hPa | 0 mm | - | - | - |
| 1777667555 | 11.11° C | 62% | 1019.9 hPa | 0 mm | - | - | - |
| 1777666951 | 11.11° C | 61% | 1019.8 hPa | 0 mm | - | - | - |
| 1777666351 | 11.67° C | 60% | 1019.8 hPa | 0 mm | - | - | - |
| 1777665745 | 12.22° C | 58% | 1019.8 hPa | 0 mm | - | - | - |
| 1777665141 | 12.78° C | 55% | 1019.8 hPa | 0 mm | - | - | - |
| 1777664537 | 12.78° C | 53% | 1019.7 hPa | 0 mm | - | - | - |
* Rain latest hour (hover to see other rain measurements)
** Current wind speed in m/s (hover to see current wind gust speed)